When you browse on this site, cookies collect data to enhance your experience and personalize the content and advertising you see.
Visit our Privacy Policy to learn more. By continuing to use the site, you agree to this use of cookies and data.
  • In Österreich
  • Länderverzeichnis
  • Für 7 Tage
  • Wassertemperatur
  • Wetterkarte
  • News
  • Widgets
  • user-avatar
    Anmelden

    Stündliche Wetter Takeo

    Heute, 9 Dezember, Montag

    Zeit Temperatur Niederschläge Wind Luftdruck Luftfeuchtigkeit
    00:00 +21°C° 0 mm 4 m/S 760 mmHg 69%
    01:00 +21°C° 0 mm 4 m/S 760 mmHg 70%
    02:00 +21°C° 0 mm 4 m/S 760 mmHg 70%
    03:00 +20°C° 0 mm 5 m/S 760 mmHg 69%
    04:00 +20°C° 0 mm 5 m/S 759 mmHg 69%
    05:00 +20°C° 0 mm 5 m/S 760 mmHg 71%
    06:00 +20°C° 0 mm 5 m/S 760 mmHg 73%
    07:00 +20°C° 0 mm 5 m/S 760 mmHg 74%
    08:00 +22°C° 0 mm 5 m/S 760 mmHg 70%
    09:00 +23°C° 0 mm 5 m/S 760 mmHg 66%
    10:00 +26°C° 0 mm 6 m/S 760 mmHg 61%
    11:00 +27°C° 0 mm 6 m/S 760 mmHg 58%
    12:00 +29°C° 0 mm 6 m/S 759 mmHg 55%
    13:00 +30°C° 0 mm 6 m/S 758 mmHg 52%
    14:00 +30°C° 0 mm 5 m/S 758 mmHg 52%
    15:00 +30°C° 0 mm 5 m/S 757 mmHg 52%
    16:00 +30°C° 0 mm 5 m/S 757 mmHg 52%
    17:00 +28°C° 0 mm 4 m/S 758 mmHg 57%
    18:00 +26°C° 0 mm 4 m/S 758 mmHg 62%
    19:00 +25°C° 0 mm 3 m/S 759 mmHg 68%
    20:00 +24°C° 0 mm 3 m/S 759 mmHg 69%
    21:00 +22°C° 0 mm 3 m/S 759 mmHg 70%
    22:00 +23°C° 0 mm 2 m/S 760 mmHg 72%
    23:00 +23°C° 0 mm 2 m/S 759 mmHg 73%

    Morgen, 10 Dezember, Dienstag

    Zeit Temperatur Niederschläge Wind Luftdruck Luftfeuchtigkeit
    00:00 +21°C° 0 mm 2 m/S 759 mmHg 73%
    01:00 +21°C° 0 mm 2 m/S 759 mmHg 74%
    02:00 +21°C° 0 mm 2 m/S 758 mmHg 76%
    03:00 +20°C° 0 mm 2 m/S 758 mmHg 77%
    04:00 +20°C° 0 mm 2 m/S 758 mmHg 78%
    05:00 +20°C° 0 mm 3 m/S 758 mmHg 79%
    06:00 +20°C° 0 mm 3 m/S 759 mmHg 79%
    07:00 +20°C° 0 mm 3 m/S 759 mmHg 79%
    08:00 +22°C° 0 mm 4 m/S 759 mmHg 75%
    09:00 +23°C° 0 mm 5 m/S 759 mmHg 70%
    10:00 +26°C° 0 mm 6 m/S 759 mmHg 65%
    11:00 +27°C° 0 mm 6 m/S 759 mmHg 62%
    12:00 +28°C° 0 mm 6 m/S 758 mmHg 58%
    13:00 +29°C° 0 mm 5 m/S 757 mmHg 55%
    14:00 +30°C° 0 mm 5 m/S 757 mmHg 54%
    15:00 +30°C° 0 mm 4 m/S 756 mmHg 53%
    16:00 +30°C° 0 mm 4 m/S 756 mmHg 52%
    17:00 +28°C° 0 mm 3 m/S 756 mmHg 57%
    18:00 +27°C° 0 mm 3 m/S 757 mmHg 62%
    19:00 +25°C° 0 mm 2 m/S 757 mmHg 67%
    20:00 +24°C° 0 mm 2 m/S 758 mmHg 69%
    21:00 +24°C° 0 mm 2 m/S 758 mmHg 71%
    22:00 +23°C° 0 mm 2 m/S 759 mmHg 73%
    23:00 +23°C° 0 mm 1 m/S 758 mmHg 74%

    übermorgen, 11 Dezember, Mittwoch

    Zeit Temperatur Niederschläge Wind Luftdruck Luftfeuchtigkeit
    00:00 +22°C° 0 mm 1 m/S 758 mmHg 76%
    01:00 +22°C° 0 mm 1 m/S 758 mmHg 77%
    02:00 +21°C° 0 mm 1 m/S 758 mmHg 78%
    03:00 +20°C° 0 mm 2 m/S 758 mmHg 80%
    04:00 +20°C° 0 mm 2 m/S 757 mmHg 81%
    05:00 +20°C° 0 mm 2 m/S 758 mmHg 81%
    06:00 +20°C° 0 mm 2 m/S 758 mmHg 82%
    07:00 +20°C° 0 mm 3 m/S 759 mmHg 82%
    08:00 +22°C° 0 mm 3 m/S 759 mmHg 76%
    09:00 +25°C° 0 mm 4 m/S 759 mmHg 70%
    10:00 +27°C° 0 mm 5 m/S 759 mmHg 64%
    11:00 +28°C° 0 mm 5 m/S 758 mmHg 60%
    12:00 +30°C° 0 mm 5 m/S 758 mmHg 56%
    13:00 +32°C° 0 mm 5 m/S 757 mmHg 52%
    14:00 +32°C° 0 mm 4 m/S 757 mmHg 50%
    15:00 +32°C° 0 mm 4 m/S 756 mmHg 49%
    16:00 +32°C° 0 mm 4 m/S 755 mmHg 48%
    17:00 +29°C° 0 mm 3 m/S 756 mmHg 53%
    18:00 +27°C° 0 mm 2 m/S 756 mmHg 58%
    19:00 +26°C° 0 mm 2 m/S 757 mmHg 63%
    20:00 +25°C° 0 mm 2 m/S 757 mmHg 65%
    21:00 +24°C° 0 mm 2 m/S 758 mmHg 68%
    22:00 +24°C° 0 mm 2 m/S 758 mmHg 70%
    23:00 +23°C° 0 mm 2 m/S 758 mmHg 70%

    12 Dezember, Donnerstag

    Zeit Temperatur Niederschläge Wind Luftdruck Luftfeuchtigkeit
    00:00 +23°C° 0 mm 2 m/S 758 mmHg 71%
    01:00 +23°C° 0 mm 2 m/S 758 mmHg 71%
    02:00 +21°C° 0 mm 2 m/S 758 mmHg 73%
    03:00 +21°C° 0 mm 2 m/S 757 mmHg 75%
    04:00 +21°C° 0 mm 1 m/S 757 mmHg 77%
    05:00 +20°C° 0 mm 2 m/S 757 mmHg 78%
    06:00 +20°C° 0 mm 2 m/S 758 mmHg 79%
    07:00 +20°C° 0 mm 3 m/S 758 mmHg 80%
    08:00 +22°C° 0 mm 4 m/S 759 mmHg 75%
    09:00 +25°C° 0 mm 4 m/S 759 mmHg 70%
    10:00 +27°C° 0 mm 5 m/S 759 mmHg 66%
    11:00 +28°C° 0 mm 5 m/S 758 mmHg 62%
    12:00 +30°C° 0 mm 5 m/S 758 mmHg 58%
    13:00 +32°C° 0 mm 5 m/S 757 mmHg 54%
    14:00 +32°C° 0 mm 4 m/S 756 mmHg 54%
    15:00 +32°C° 0 mm 4 m/S 756 mmHg 54%
    16:00 +32°C° 0 mm 4 m/S 756 mmHg 54%
    17:00 +30°C° 0 mm 3 m/S 756 mmHg 59%
    18:00 +28°C° 0 mm 3 m/S 757 mmHg 63%
    19:00 +27°C° 0 mm 2 m/S 757 mmHg 68%
    20:00 +26°C° 0 mm 2 m/S 758 mmHg 69%
    21:00 +26°C° 0 mm 2 m/S 758 mmHg 71%
    22:00 +25°C° 0 mm 2 m/S 759 mmHg 72%
    23:00 +25°C° 0 mm 2 m/S 758 mmHg 71%

    13 Dezember, Freitag

    Zeit Temperatur Niederschläge Wind Luftdruck Luftfeuchtigkeit
    00:00 +25°C° 0 mm 2 m/S 758 mmHg 70%
    01:00 +25°C° 0 mm 2 m/S 758 mmHg 69%
    02:00 +24°C° 0 mm 2 m/S 758 mmHg 72%
    03:00 +24°C° 0 mm 2 m/S 758 mmHg 75%
    04:00 +23°C° 0 mm 2 m/S 757 mmHg 78%
    05:00 +23°C° 0 mm 2 m/S 758 mmHg 79%
    06:00 +22°C° 0 mm 3 m/S 758 mmHg 80%
    07:00 +22°C° 0 mm 3 m/S 759 mmHg 80%
    08:00 +25°C° 0 mm 4 m/S 759 mmHg 76%
    09:00 +26°C° 0 mm 4 m/S 759 mmHg 71%
    10:00 +28°C° 0 mm 5 m/S 759 mmHg 66%
    11:00 +29°C° 0 mm 5 m/S 759 mmHg 61%
    12:00 +30°C° 0 mm 5 m/S 758 mmHg 55%
    13:00 +32°C° 0 mm 5 m/S 757 mmHg 49%
    14:00 +32°C° 0 mm 5 m/S 757 mmHg 49%
    15:00 +32°C° 0 mm 5 m/S 757 mmHg 49%
    16:00 +32°C° 0 mm 5 m/S 756 mmHg 49%
    17:00 +30°C° 0 mm 4 m/S 757 mmHg 52%
    18:00 +28°C° 0 mm 4 m/S 757 mmHg 56%
    19:00 +27°C° 0 mm 3 m/S 758 mmHg 60%
    20:00 +26°C° 0 mm 3 m/S 758 mmHg 63%
    21:00 +26°C° 0 mm 3 m/S 758 mmHg 66%
    22:00 +25°C° 0 mm 3 m/S 759 mmHg 69%
    23:00 +25°C° 0 mm 3 m/S 758 mmHg 70%

    14 Dezember, Samstag

    Zeit Temperatur Niederschläge Wind Luftdruck Luftfeuchtigkeit
    00:00 +25°C° 0 mm 3 m/S 758 mmHg 72%
    01:00 +24°C° 0 mm 3 m/S 758 mmHg 73%
    02:00 +24°C° 0 mm 3 m/S 758 mmHg 74%
    03:00 +24°C° 0 mm 3 m/S 758 mmHg 75%
    04:00 +22°C° 0 mm 3 m/S 757 mmHg 76%
    05:00 +22°C° 0 mm 3 m/S 758 mmHg 78%
    06:00 +22°C° 0 mm 3 m/S 758 mmHg 80%
    07:00 +22°C° 0 mm 3 m/S 759 mmHg 81%
    08:00 +26°C° 0 mm 4 m/S 759 mmHg 75%
    09:00 +28°C° 0 mm 4 m/S 759 mmHg 68%
    10:00 +30°C° 0 mm 5 m/S 759 mmHg 61%
    11:00 +32°C° 0 mm 5 m/S 758 mmHg 56%
    12:00 +34°C° 0 mm 4 m/S 757 mmHg 52%
    13:00 +35°C° 0 mm 4 m/S 757 mmHg 47%
    14:00 +35°C° 0 mm 4 m/S 756 mmHg 47%
    15:00 +35°C° 0 mm 4 m/S 756 mmHg 47%
    16:00 +35°C° 0 mm 3 m/S 755 mmHg 47%
    17:00 +34°C° 0 mm 3 m/S 756 mmHg 51%
    18:00 +31°C° 0 mm 3 m/S 756 mmHg 55%
    19:00 +30°C° 0 mm 2 m/S 757 mmHg 59%
    20:00 +30°C° 0 mm 2 m/S 757 mmHg 60%
    21:00 +30°C° 0 mm 2 m/S 758 mmHg 61%
    22:00 +29°C° 0 mm 2 m/S 758 mmHg 62%
    23:00 +29°C° 0 mm 2 m/S 758 mmHg 65%
    Mehr zeigen